FDX1123 KLAX-KLAS

Flight info

Callsign FDX1123
Flight time 0h 45m
Altitude 29000
Route ORCKA5 MISEN RNDRZ4
Aircraft MD11/H-SDE1E2E3FGHIJ2J3J4J5M1RWXY/LB1D1

Departure

Time 2026-05-04 03:56
Airport Los Angeles International Airport (KLAX)

Arrival

Time 2026-05-04 04:41
Airport Harry Reid International Airport (KLAS)
Time Latitude Longitude Altitude Speed Heading
2026-05-04 03:31 33.93264 -118.38213 128 ft 0 kts 231°
2026-05-04 03:44 33.93271 -118.38203 133 ft 3 kts 236°
2026-05-04 03:44 33.93281 -118.38183 129 ft 3 kts 250°
2026-05-04 03:45 33.93286 -118.38161 133 ft 3 kts 266°
2026-05-04 03:45 33.93286 -118.38138 133 ft 3 kts 282°
2026-05-04 03:45 33.93281 -118.38116 133 ft 3 kts 296°
2026-05-04 03:45 33.93273 -118.38097 126 ft 2 kts 305°
2026-05-04 03:46 33.93271 -118.38094 127 ft 0 kts 305°
2026-05-04 03:49 33.93279 -118.38105 133 ft 3 kts 312°
2026-05-04 03:49 33.93310 -118.38122 130 ft 7 kts 347°
2026-05-04 03:50 33.93370 -118.38125 127 ft 10 kts 358°
2026-05-04 03:50 33.93453 -118.38129 131 ft 14 kts 358°
2026-05-04 03:50 33.93550 -118.38127 126 ft 10 kts
2026-05-04 03:50 33.93603 -118.38142 130 ft 6 kts 321°
2026-05-04 03:51 33.93618 -118.38178 131 ft 3 kts 283°
2026-05-04 03:51 33.93619 -118.38203 128 ft 4 kts 270°
2026-05-04 03:51 33.93617 -118.38240 133 ft 4 kts 266°
2026-05-04 03:51 33.93621 -118.38258 133 ft 1 kts 295°
2026-05-04 03:52 33.93622 -118.38259 133 ft 0 kts 298°
2026-05-04 03:54 33.93641 -118.38280 131 ft 9 kts 321°
2026-05-04 03:54 33.93690 -118.38296 131 ft 6 kts 359°
2026-05-04 03:54 33.93725 -118.38305 131 ft 5 kts 332°
2026-05-04 03:54 33.93738 -118.38330 124 ft 2 kts 288°
2026-05-04 03:55 33.93734 -118.38361 127 ft 7 kts 260°
2026-05-04 03:55 33.93706 -118.38580 133 ft 62 kts 263°
2026-05-04 03:55 33.93655 -118.39068 129 ft 114 kts 262°
2026-05-04 03:55 33.93533 -118.40286 143 ft 173 kts 263°
2026-05-04 03:56 33.93359 -118.41800 774 ft 180 kts 262°
2026-05-04 03:56 33.93189 -118.43221 1952 ft 169 kts 262°
2026-05-04 03:56 33.93017 -118.44655 2325 ft 176 kts 260°
2026-05-04 03:56 33.92807 -118.46113 2624 ft 177 kts 261°
2026-05-04 03:57 33.92604 -118.47613 3312 ft 181 kts 261°
2026-05-04 03:57 33.92405 -118.49199 3853 ft 202 kts 262°
2026-05-04 03:57 33.92210 -118.50953 4284 ft 220 kts 262°
2026-05-04 03:57 33.91841 -118.52810 4585 ft 239 kts 251°
2026-05-04 03:58 33.90697 -118.56490 6030 ft 231 kts 250°
2026-05-04 03:58 33.90113 -118.58292 6746 ft 231 kts 249°
2026-05-04 03:58 33.89524 -118.60095 7388 ft 232 kts 249°
2026-05-04 03:59 33.88943 -118.61912 7996 ft 234 kts 249°
2026-05-04 03:59 33.88230 -118.63666 8515 ft 235 kts 231°
2026-05-04 03:59 33.86930 -118.64834 9109 ft 238 kts 202°
2026-05-04 03:59 33.85281 -118.65049 9644 ft 245 kts 174°
2026-05-04 04:00 33.83704 -118.64218 10164 ft 255 kts 145°
2026-05-04 04:00 33.82603 -118.62512 10611 ft 267 kts 117°
2026-05-04 04:00 33.82264 -118.60299 11060 ft 276 kts 89°
2026-05-04 04:00 33.82790 -118.58063 11492 ft 283 kts 63°
2026-05-04 04:01 33.83824 -118.56042 11884 ft 288 kts 57°
2026-05-04 04:01 33.84956 -118.54044 12269 ft 290 kts 56°
2026-05-04 04:01 33.86102 -118.52037 12756 ft 292 kts 56°
2026-05-04 04:01 33.87258 -118.50009 13171 ft 297 kts 57°
2026-05-04 04:02 33.88457 -118.47905 13320 ft 312 kts 57°
2026-05-04 04:02 33.89719 -118.45688 13445 ft 331 kts 57°
2026-05-04 04:02 33.91063 -118.43320 13588 ft 356 kts 51°
2026-05-04 04:02 33.92825 -118.41090 13746 ft 380 kts 44°
2026-05-04 04:03 33.94773 -118.38804 13879 ft 402 kts 46°
2026-05-04 04:03 33.96698 -118.36299 14356 ft 411 kts 49°
2026-05-04 04:03 33.98536 -118.33613 14885 ft 419 kts 52°
2026-05-04 04:03 34.00309 -118.30779 15436 ft 427 kts 53°
2026-05-04 04:04 34.02043 -118.27847 15963 ft 434 kts 54°
2026-05-04 04:04 34.03751 -118.24874 16525 ft 439 kts 55°
2026-05-04 04:04 34.05507 -118.21774 17089 ft 445 kts 55°
2026-05-04 04:04 34.07238 -118.18706 17597 ft 452 kts 55°
2026-05-04 04:05 34.09016 -118.15552 18104 ft 458 kts 54°
2026-05-04 04:05 34.10818 -118.12356 18547 ft 464 kts 54°
2026-05-04 04:05 34.12643 -118.09120 19017 ft 468 kts 54°
2026-05-04 04:05 34.14478 -118.05863 19457 ft 472 kts 54°
2026-05-04 04:06 34.16331 -118.02570 19916 ft 475 kts 54°
2026-05-04 04:06 34.18194 -117.99262 20399 ft 479 kts 54°
2026-05-04 04:06 34.20076 -117.95918 20879 ft 483 kts 54°
2026-05-04 04:06 34.21974 -117.92547 21273 ft 486 kts 54°
2026-05-04 04:07 34.23880 -117.89152 21758 ft 490 kts 54°
2026-05-04 04:07 34.25801 -117.85729 22262 ft 494 kts 54°
2026-05-04 04:07 34.27735 -117.82280 22768 ft 497 kts 54°
2026-05-04 04:07 34.29680 -117.78809 23292 ft 501 kts 54°
2026-05-04 04:08 34.31644 -117.75301 23725 ft 505 kts 54°
2026-05-04 04:08 34.33619 -117.71766 24105 ft 509 kts 54°
2026-05-04 04:08 34.35633 -117.68223 24511 ft 513 kts 53°
2026-05-04 04:08 34.37709 -117.64681 24912 ft 517 kts 52°
2026-05-04 04:09 34.39823 -117.61139 25307 ft 521 kts 52°
2026-05-04 04:09 34.41965 -117.57572 25675 ft 526 kts 51°
2026-05-04 04:09 34.44124 -117.53976 26107 ft 530 kts 51°
2026-05-04 04:09 34.46293 -117.50354 26612 ft 533 kts 52°
2026-05-04 04:10 34.48474 -117.46700 27008 ft 537 kts 52°
2026-05-04 04:10 34.50664 -117.43024 27525 ft 539 kts 52°
2026-05-04 04:10 34.52865 -117.39322 27914 ft 543 kts 52°
2026-05-04 04:10 34.55076 -117.35597 28303 ft 546 kts 52°
2026-05-04 04:11 34.57299 -117.31848 28702 ft 549 kts 52°
2026-05-04 04:11 34.59537 -117.28071 28937 ft 553 kts 52°
2026-05-04 04:11 34.64077 -117.20399 28957 ft 563 kts 52°
2026-05-04 04:12 34.66362 -117.16529 28831 ft 564 kts 52°
2026-05-04 04:12 34.68649 -117.12651 28844 ft 564 kts 52°
2026-05-04 04:12 34.73211 -117.04903 28846 ft 564 kts 52°
2026-05-04 04:13 34.77767 -116.97151 28852 ft 563 kts 52°
2026-05-04 04:13 34.82320 -116.89387 28868 ft 564 kts 52°
2026-05-04 04:14 34.86838 -116.81624 28872 ft 563 kts 53°
2026-05-04 04:14 34.91360 -116.73837 28870 ft 563 kts 53°
2026-05-04 04:15 34.95826 -116.65986 28853 ft 566 kts 54°
2026-05-04 04:15 35.00266 -116.58069 28831 ft 564 kts 54°
2026-05-04 04:16 35.04668 -116.50205 28809 ft 561 kts 53°
2026-05-04 04:16 35.09072 -116.42376 28646 ft 550 kts 51°
2026-05-04 04:17 35.11398 -116.38762 28210 ft 535 kts 46°
2026-05-04 04:17 35.13861 -116.35389 27502 ft 530 kts 44°
2026-05-04 04:17 35.16401 -116.32137 26796 ft 529 kts 42°
2026-05-04 04:17 35.18973 -116.28915 26072 ft 530 kts 42°
2026-05-04 04:18 35.21543 -116.25678 25336 ft 531 kts 43°
2026-05-04 04:18 35.24066 -116.22394 24591 ft 532 kts 45°
2026-05-04 04:18 35.26488 -116.19055 24105 ft 519 kts 46°
2026-05-04 04:18 35.28795 -116.15776 23945 ft 497 kts 48°
2026-05-04 04:19 35.30880 -116.12541 23957 ft 472 kts 50°
2026-05-04 04:19 35.32858 -116.09423 23833 ft 454 kts 50°
2026-05-04 04:19 35.34752 -116.06417 23706 ft 438 kts 50°
2026-05-04 04:19 35.36593 -116.03489 23311 ft 431 kts 50°
2026-05-04 04:20 35.38393 -116.00629 22825 ft 427 kts 50°
2026-05-04 04:20 35.40198 -115.97772 22348 ft 421 kts 50°
2026-05-04 04:20 35.42051 -115.94970 21824 ft 414 kts 43°
2026-05-04 04:20 35.44128 -115.92594 21415 ft 404 kts 38°
2026-05-04 04:21 35.45537 -115.91114 21104 ft 401 kts 38°
2026-05-04 04:21 35.48301 -115.88091 20519 ft 395 kts 41°
2026-05-04 04:21 35.50261 -115.85764 20088 ft 390 kts 43°
2026-05-04 04:21 35.52118 -115.83430 19683 ft 384 kts 45°
2026-05-04 04:22 35.53964 -115.81024 19265 ft 379 kts 46°
2026-05-04 04:22 35.55742 -115.78657 18854 ft 375 kts 47°
2026-05-04 04:22 35.57463 -115.76343 18476 ft 369 kts 47°
2026-05-04 04:22 35.59202 -115.73994 18079 ft 364 kts 47°
2026-05-04 04:23 35.60871 -115.71736 17617 ft 360 kts 48°
2026-05-04 04:23 35.62544 -115.69470 17148 ft 356 kts 48°
2026-05-04 04:23 35.64196 -115.67230 16810 ft 350 kts 48°
2026-05-04 04:23 35.65837 -115.65005 16558 ft 352 kts 49°
2026-05-04 04:24 35.67472 -115.62785 16292 ft 348 kts 49°
2026-05-04 04:24 35.69092 -115.60586 16151 ft 346 kts 49°
2026-05-04 04:24 35.70708 -115.58390 16081 ft 346 kts 49°
2026-05-04 04:24 35.72373 -115.56265 16054 ft 346 kts 41°
2026-05-04 04:25 35.74307 -115.54530 16053 ft 346 kts 32°
2026-05-04 04:25 35.76366 -115.53011 16049 ft 346 kts 30°
2026-05-04 04:25 35.78465 -115.51556 16050 ft 346 kts 29°
2026-05-04 04:25 35.80563 -115.50117 16048 ft 347 kts 29°
2026-05-04 04:26 35.82656 -115.48673 16046 ft 346 kts 29°
2026-05-04 04:26 35.84742 -115.47224 16037 ft 340 kts 30°
2026-05-04 04:26 35.86771 -115.45807 16028 ft 333 kts 30°
2026-05-04 04:26 35.88787 -115.44392 16031 ft 333 kts 30°
2026-05-04 04:27 35.90801 -115.42977 16030 ft 333 kts 30°
2026-05-04 04:27 35.92819 -115.41561 15959 ft 334 kts 30°
2026-05-04 04:27 35.94839 -115.40145 15641 ft 338 kts 30°
2026-05-04 04:27 35.96913 -115.38691 14979 ft 346 kts 31°
2026-05-04 04:28 35.98977 -115.37146 14346 ft 347 kts 38°
2026-05-04 04:28 36.00666 -115.35061 13732 ft 342 kts 60°
2026-05-04 04:28 36.01476 -115.32401 13461 ft 319 kts 85°
2026-05-04 04:28 36.01587 -115.29737 13357 ft 307 kts 95°
2026-05-04 04:29 36.01491 -115.27094 12782 ft 309 kts 97°
2026-05-04 04:29 36.01330 -115.24486 12568 ft 298 kts 98°
2026-05-04 04:29 36.01163 -115.21942 12037 ft 300 kts 98°
2026-05-04 04:29 36.01011 -115.19362 11505 ft 302 kts 97°
2026-05-04 04:30 36.00845 -115.16782 11109 ft 299 kts 98°
2026-05-04 04:30 36.00692 -115.14302 11108 ft 278 kts 98°
2026-05-04 04:30 36.00557 -115.11999 11037 ft 258 kts 99°
2026-05-04 04:30 36.00422 -115.09828 11039 ft 252 kts 99°
2026-05-04 04:31 36.00292 -115.07663 10536 ft 258 kts 98°
2026-05-04 04:31 36.00169 -115.05467 10102 ft 252 kts 99°
2026-05-04 04:31 36.00054 -115.03324 9732 ft 249 kts 99°
2026-05-04 04:31 35.99968 -115.01193 9341 ft 249 kts 96°
2026-05-04 04:32 36.00023 -114.99077 9051 ft 250 kts 94°
2026-05-04 04:32 35.99959 -114.96941 8926 ft 252 kts 94°
2026-05-04 04:32 35.99941 -114.94796 8669 ft 251 kts 95°
2026-05-04 04:32 35.99928 -114.92647 8426 ft 251 kts 94°
2026-05-04 04:33 35.99928 -114.90501 8195 ft 249 kts 95°
2026-05-04 04:33 35.99917 -114.88370 8076 ft 248 kts 96°
2026-05-04 04:33 35.99907 -114.86255 7825 ft 245 kts 97°
2026-05-04 04:33 35.99911 -114.84149 7472 ft 248 kts 95°
2026-05-04 04:34 35.99907 -114.82019 7125 ft 247 kts 95°
2026-05-04 04:34 35.99896 -114.79913 7014 ft 244 kts 95°
2026-05-04 04:34 36.00065 -114.77834 7021 ft 248 kts 75°
2026-05-04 04:34 36.00989 -114.76026 6962 ft 257 kts 43°
2026-05-04 04:35 36.02553 -114.74973 6998 ft 258 kts 11°
2026-05-04 04:35 36.04317 -114.74963 6969 ft 253 kts 342°
2026-05-04 04:35 36.05843 -114.75908 6468 ft 243 kts 312°
2026-05-04 04:35 36.06908 -114.77452 6107 ft 233 kts 293°
2026-05-04 04:36 36.07323 -114.79310 5737 ft 221 kts 268°
2026-05-04 04:36 36.07361 -114.81206 5382 ft 220 kts 265°
2026-05-04 04:36 36.07366 -114.83082 5059 ft 215 kts 265°
2026-05-04 04:36 36.07370 -114.84935 4999 ft 217 kts 265°
2026-05-04 04:37 36.07372 -114.90607 4993 ft 220 kts 264°
2026-05-04 04:37 36.07372 -114.92509 4979 ft 220 kts 265°
2026-05-04 04:38 36.07372 -114.94394 4816 ft 219 kts 265°
2026-05-04 04:38 36.07374 -114.96238 4547 ft 209 kts 265°
2026-05-04 04:38 36.07376 -114.97971 4293 ft 196 kts 265°
2026-05-04 04:38 36.07374 -114.99643 4057 ft 195 kts 265°
2026-05-04 04:39 36.07371 -115.01289 3830 ft 185 kts 267°
2026-05-04 04:39 36.07371 -115.02807 3588 ft 168 kts 268°
2026-05-04 04:39 36.07370 -115.04216 3395 ft 163 kts 267°
2026-05-04 04:39 36.07369 -115.05606 3219 ft 159 kts 266°
2026-05-04 04:40 36.07367 -115.06958 3017 ft 157 kts 266°
2026-05-04 04:40 36.07367 -115.07848 2875 ft 155 kts 265°
2026-05-04 04:40 36.07365 -115.09211 2663 ft 161 kts 267°
2026-05-04 04:40 36.07364 -115.10599 2454 ft 160 kts 265°
2026-05-04 04:41 36.07379 -115.11951 2275 ft 154 kts 266°
2026-05-04 04:41 36.07362 -115.13175 2129 ft 126 kts 270°
2026-05-04 04:41 36.07366 -115.14108 2132 ft 87 kts 269°
2026-05-04 04:41 36.07366 -115.14623 2133 ft 38 kts 271°
2026-05-04 04:42 36.07388 -115.14838 2132 ft 36 kts 284°
2026-05-04 04:42 36.07470 -115.15052 2128 ft 17 kts 303°
2026-05-04 04:42 36.07544 -115.15139 2131 ft 12 kts 324°
2026-05-04 04:42 36.07601 -115.15175 2132 ft 6 kts 352°
2026-05-04 04:43 36.07636 -115.15160 2133 ft 6 kts 28°
2026-05-04 04:43 36.07693 -115.15127 2133 ft 11 kts 13°
2026-05-04 04:43 36.07754 -115.15105 2132 ft 8 kts 27°
2026-05-04 04:43 36.07791 -115.15061 2133 ft 8 kts 59°
2026-05-04 04:44 36.07794 -115.14984 2133 ft 10 kts 96°
2026-05-04 04:44 36.07785 -115.14879 2133 ft 15 kts 96°
2026-05-04 04:44 36.07774 -115.14727 2128 ft 21 kts 94°
2026-05-04 04:44 36.07764 -115.14528 2127 ft 25 kts 95°
2026-05-04 04:45 36.07754 -115.14321 2128 ft 23 kts 92°
2026-05-04 04:45 36.07753 -115.14132 2127 ft 21 kts 90°
2026-05-04 04:45 36.07752 -115.13971 2131 ft 18 kts 90°
2026-05-04 04:47 36.07755 -115.12784 2127 ft 21 kts 90°
2026-05-04 04:47 36.07767 -115.12654 2128 ft 9 kts 56°
2026-05-04 04:47 36.07827 -115.12637 2124 ft 10 kts
2026-05-04 04:47 36.07909 -115.12639 2119 ft 13 kts 358°
2026-05-04 04:48 36.08009 -115.12642 2114 ft 15 kts 358°
2026-05-04 04:49 36.08179 -115.12561 2099 ft 0 kts 89°